StationID,Date,MaxTemp,MinTemp,Precipitation,Snowfall,SnowDepth
"CA001098954","1988-12-01",41.90,32.90,6.00,0.00,90.00
"CA001098954","1988-12-02",37.40,19.40,0.00,0.00,90.00
"CA001098954","1988-12-03",41.90,16.70,0.00,0.00,90.00
"CA001098954","1988-12-04",41.00,32.00,6.00,0.00,90.00
"CA001098954","1988-12-05",40.10,28.40,0.00,0.00,90.00
"CA001098954","1988-12-06",26.60,12.20,0.00,0.00,90.00
"CA001098954","1988-12-07",24.80,6.80,84.00,84.00,90.00
"CA001098954","1988-12-08",36.50,20.30,14.00,0.00,170.00
"CA001098954","1988-12-09",37.40,18.50,25.00,25.00,170.00
"CA001098954","1988-12-10",37.40,22.10,10.00,10.00,200.00
"CA001098954","1988-12-11",37.40,22.10,32.00,32.00,210.00
"CA001098954","1988-12-12",34.70,14.00,56.00,30.00,230.00
"CA001098954","1988-12-13",32.90,26.60,114.00,114.00,
"CA001098954","1988-12-14",26.60,16.70,0.00,0.00,340.00
"CA001098954","1988-12-15",19.40,4.10,0.00,0.00,340.00
"CA001098954","1988-12-16",16.70,-4.00,0.00,0.00,340.00
"CA001098954","1988-12-17",25.70,0.50,0.00,0.00,330.00
"CA001098954","1988-12-18",33.80,11.30,30.00,30.00,320.00
"CA001098954","1988-12-19",21.20,6.80,0.00,0.00,350.00
"CA001098954","1988-12-20",15.80,6.80,0.00,0.00,330.00
"CA001098954","1988-12-21",19.40,2.30,14.00,14.00,330.00
"CA001098954","1988-12-22",16.70,-3.10,38.00,38.00,340.00
"CA001098954","1988-12-23",22.10,5.00,6.00,6.00,370.00
"CA001098954","1988-12-24",20.30,6.80,0.00,0.00,350.00
"CA001098954","1988-12-25",1.40,-17.50,0.00,0.00,350.00
"CA001098954","1988-12-26",12.20,-11.20,44.00,44.00,340.00
"CA001098954","1988-12-27",20.30,5.90,28.00,28.00,380.00
"CA001098954","1988-12-28",33.80,17.60,250.00,250.00,400.00
"CA001098954","1988-12-29",32.90,23.00,0.00,0.00,620.00
"CA001098954","1988-12-30",21.20,14.00,0.00,0.00,610.00
"CA001098954","1988-12-31",7.70,-18.40,20.00,20.00,520.00
"CA001098954","1989-01-01",17.60,-8.50,38.00,38.00,580.00
"CA001098954","1989-01-02",22.10,-7.60,132.00,132.00,600.00
"CA001098954","1989-01-03",33.80,9.50,10.00,10.00,690.00
"CA001098954","1989-01-04",19.40,-0.40,28.00,28.00,630.00
"CA001098954","1989-01-05",19.40,7.70,12.00,12.00,650.00
"CA001098954","1989-01-06",6.80,-4.00,0.00,0.00,610.00
"CA001098954","1989-01-07",-4.00,-31.00,12.00,12.00,600.00
"CA001098954","1989-01-08",12.20,-23.80,84.00,84.00,610.00
"CA001098954","1989-01-09",17.60,5.00,26.00,26.00,690.00
"CA001098954","1989-01-10",17.60,12.20,10.00,10.00,680.00
"CA001098954","1989-01-11",27.50,1.40,18.00,18.00,670.00
"CA001098954","1989-01-12",41.00,14.90,18.00,18.00,670.00
"CA001098954","1989-01-13",32.90,8.60,0.00,0.00,630.00
"CA001098954","1989-01-14",22.10,-3.10,84.00,84.00,600.00
"CA001098954","1989-01-15",32.90,10.40,190.00,190.00,680.00
"CA001098954","1989-01-16",40.10,25.70,2.00,0.00,810.00
"CA001098954","1989-01-17",35.60,26.60,14.00,14.00,740.00
"CA001098954","1989-01-18",36.50,19.40,40.00,40.00,750.00
"CA001098954","1989-01-19",41.90,27.50,18.00,0.00,760.00
"CA001098954","1989-01-20",46.40,28.40,0.00,0.00,740.00
"CA001098954","1989-01-21",37.40,23.00,0.00,0.00,720.00
"CA001098954","1989-01-22",24.80,-5.80,0.00,0.00,720.00
"CA001098954","1989-01-23",12.20,-13.90,2.00,2.00,720.00
"CA001098954","1989-01-24",24.80,-0.40,84.00,84.00,700.00
"CA001098954","1989-01-25",34.70,17.60,0.00,0.00,770.00
"CA001098954","1989-01-26",48.20,15.80,8.00,0.00,760.00
"CA001098954","1989-01-27",39.20,23.90,0.00,0.00,700.00
"CA001098954","1989-01-28",42.80,30.20,20.00,0.00,700.00
"CA001098954","1989-01-29",40.10,34.70,70.00,6.00,640.00
"CA001098954","1989-01-30",33.80,-4.00,20.00,20.00,610.00
"CA001098954","1989-01-31",-14.80,-22.90,0.00,0.00,630.00
"CA001098954","1989-02-01",-9.40,-20.20,0.00,0.00,610.00
"CA001098954","1989-02-02",-5.80,-34.60,0.00,0.00,
"CA001098954","1989-02-03",4.10,-34.60,0.00,0.00,
"CA001098954","1989-02-04",4.10,-30.10,0.00,0.00,610.00
"CA001098954","1989-02-05",5.00,-29.20,0.00,0.00,
"CA001098954","1989-02-06",5.00,-27.40,0.00,0.00,600.00
"CA001098954","1989-02-07",14.00,-23.80,0.00,0.00,600.00
"CA001098954","1989-02-08",14.90,-20.20,0.00,0.00,600.00
"CA001098954","1989-02-09",23.00,-19.30,0.00,0.00,600.00
"CA001098954","1989-02-10",14.90,-16.60,0.00,0.00,590.00
"CA001098954","1989-02-11",23.00,-12.10,0.00,0.00,
"CA001098954","1989-02-12",19.40,-10.30,0.00,0.00,
"CA001098954","1989-02-13",24.80,-8.50,0.00,0.00,
"CA001098954","1989-02-14",24.80,-0.40,66.00,66.00,
"CA001098954","1989-02-15",23.00,15.80,0.00,0.00,
"CA001098954","1989-02-16",22.10,-22.90,0.00,0.00,660.00
"CA001098954","1989-02-17",23.00,-23.80,0.00,0.00,650.00
"CA001098954","1989-02-18",23.00,-22.00,0.00,0.00,640.00
"CA001098954","1989-02-19",17.60,-17.50,20.00,20.00,640.00
"CA001098954","1989-02-20",37.40,1.40,0.00,0.00,650.00
"CA001098954","1989-02-21",43.70,-0.40,10.00,10.00,
"CA001098954","1989-02-22",39.20,19.40,,,650.00
"CA001098954","1989-02-23",45.50,32.90,30.00,0.00,620.00
"CA001098954","1989-02-24",39.20,31.10,0.00,0.00,600.00
"CA001098954","1989-02-25",30.20,17.60,0.00,0.00,600.00
"CA001098954","1989-02-26",33.80,5.90,60.00,60.00,600.00
"CA001098954","1989-02-27",27.50,23.00,0.00,0.00,630.00
"CA001098954","1989-02-28",10.40,-1.30,0.00,0.00,610.00
"CA001098954","1989-03-01",14.90,-24.70,0.00,0.00,620.00
"CA001098954","1989-03-02",24.80,-22.00,0.00,0.00,
"CA001098954","1989-03-03",32.00,-10.30,6.00,6.00,
"CA001098954","1989-03-04",36.50,3.20,0.00,0.00,
"CA001098954","1989-03-05",41.90,16.70,10.00,0.00,
"CA001098954","1989-03-06",39.20,23.00,24.00,24.00,600.00
"CA001098954","1989-03-07",41.00,5.00,0.00,0.00,620.00
"CA001098954","1989-03-08",44.60,18.50,54.00,54.00,620.00
"CA001098954","1989-03-09",44.60,26.60,30.00,30.00,650.00
"CA001098954","1989-03-10",14.90,9.50,0.00,0.00,610.00
"CA001098954","1989-03-11",17.60,-0.40,18.00,18.00,610.00
"CA001098954","1989-03-12",27.50,6.80,16.00,16.00,630.00
"CA001098954","1989-03-13",35.60,14.00,20.00,0.00,650.00
"CA001098954","1989-03-14",37.40,7.70,4.00,4.00,650.00
"CA001098954","1989-03-15",36.50,14.90,0.00,0.00,650.00
"CA001098954","1989-03-16",27.50,4.10,0.00,0.00,630.00
"CA001098954","1989-03-17",30.20,-14.80,0.00,0.00,630.00
"CA001098954","1989-03-18",45.50,-2.20,0.00,0.00,630.00
"CA001098954","1989-03-19",44.60,-1.30,0.00,0.00,630.00
"CA001098954","1989-03-20",46.40,4.10,0.00,0.00,630.00
"CA001098954","1989-03-21",42.80,27.50,8.00,0.00,630.00
"CA001098954","1989-03-22",50.00,25.70,0.00,0.00,610.00
"CA001098954","1989-03-23",46.40,28.40,0.00,0.00,600.00
"CA001098954","1989-03-24",50.00,15.80,0.00,0.00,580.00
"CA001098954","1989-03-25",50.00,24.80,14.00,0.00,560.00
"CA001098954","1989-03-26",46.40,29.30,,,520.00
"CA001098954","1989-03-29",51.80,,0.00,0.00,
"CA001098954","1989-03-30",50.00,16.70,0.00,0.00,420.00
"CA001098954","1989-03-31",48.20,33.80,2.00,0.00,380.00
"CA001098954","1989-04-01",44.60,24.80,0.00,0.00,350.00
"CA001098954","1989-04-02",48.20,28.40,2.00,2.00,320.00
"CA001098954","1989-04-03",47.30,24.80,0.00,0.00,310.00
"CA001098954","1989-04-04",45.50,20.30,0.00,0.00,270.00
"CA001098954","1989-04-05",47.30,28.40,4.00,0.00,240.00
"CA001098954","1989-04-06",41.00,27.50,,,240.00
"CA001098954","1989-04-07",42.80,33.80,,,190.00
"CA001098954","1989-04-08",48.20,30.20,0.00,0.00,150.00
"CA001098954","1989-04-09",54.50,18.50,0.00,0.00,
"CA001098954","1989-04-10",60.80,22.10,0.00,0.00,120.00
"CA001098954","1989-04-11",59.90,29.30,0.00,0.00,100.00
"CA001098954","1989-04-12",54.50,27.50,0.00,0.00,0.00
"CA001098954","1989-04-13",62.60,30.20,0.00,0.00,0.00
"CA001098954","1989-04-14",48.20,35.60,18.00,0.00,0.00
"CA001098954","1989-04-15",52.70,23.90,0.00,0.00,0.00
"CA001098954","1989-04-16",46.40,23.00,0.00,0.00,0.00
"CA001098954","1989-04-17",59.00,15.80,0.00,0.00,0.00
"CA001098954","1989-04-18",64.40,22.10,0.00,0.00,0.00
"CA001098954","1989-04-19",68.90,30.20,2.00,0.00,0.00
"CA001098954","1989-04-20",68.00,40.10,92.00,0.00,0.00
"CA001098954","1989-04-21",56.30,31.10,0.00,0.00,0.00
"CA001098954","1989-04-22",59.00,26.60,0.00,0.00,0.00
"CA001098954","1989-04-23",59.90,31.10,0.00,0.00,0.00
"CA001098954","1989-04-24",62.60,24.80,0.00,0.00,0.00
"CA001098954","1989-04-25",64.40,23.90,0.00,0.00,0.00
"CA001098954","1989-04-26",66.20,26.60,0.00,0.00,0.00
"CA001098954","1989-04-27",66.20,32.00,0.00,0.00,0.00
"CA001098954","1989-04-28",71.60,29.30,0.00,0.00,0.00
"CA001098954","1989-04-29",73.40,29.30,8.00,0.00,0.00
"CA001098954","1989-04-30",65.30,39.20,0.00,0.00,0.00
"CA001098954","1989-05-01",60.80,40.10,0.00,0.00,0.00
"CA001098954","1989-05-02",67.10,26.60,0.00,0.00,0.00
"CA001098954","1989-05-03",68.90,43.70,0.00,0.00,0.00
"CA001098954","1989-05-04",73.40,30.20,0.00,0.00,0.00
"CA001098954","1989-05-05",73.40,31.10,4.00,0.00,0.00
"CA001098954","1989-05-06",68.00,45.50,6.00,0.00,0.00
"CA001098954","1989-05-07",68.90,39.20,0.00,0.00,0.00
"CA001098954","1989-05-08",74.30,33.80,0.00,0.00,0.00
"CA001098954","1989-05-09",72.50,36.50,28.00,0.00,0.00
"CA001098954","1989-05-10",57.20,42.80,0.00,0.00,0.00
"CA001098954","1989-05-11",55.40,33.80,6.00,0.00,0.00
"CA001098954","1989-05-12",57.20,32.90,0.00,0.00,0.00
"CA001098954","1989-05-13",66.20,24.80,0.00,0.00,0.00
"CA001098954","1989-05-14",72.50,28.40,0.00,0.00,0.00
"CA001098954","1989-05-15",66.20,37.40,0.00,0.00,0.00
"CA001098954","1989-05-16",63.50,41.00,0.00,0.00,0.00
"CA001098954","1989-05-17",53.60,34.70,292.00,0.00,0.00
"CA001098954","1989-05-18",46.40,39.20,117.00,0.00,0.00
"CA001098954","1989-05-19",55.40,37.40,2.00,0.00,0.00
"CA001098954","1989-05-20",57.20,27.50,0.00,0.00,0.00
"CA001098954","1989-05-21",57.20,37.40,4.00,0.00,0.00
"CA001098954","1989-05-22",57.20,37.40,2.00,0.00,0.00
"CA001098954","1989-05-23",64.40,26.60,0.00,0.00,0.00
"CA001098954","1989-05-24",65.30,32.00,0.00,0.00,0.00
"CA001098954","1989-05-25",55.40,32.90,28.00,0.00,0.00
"CA001098954","1989-05-26",53.60,33.80,39.00,0.00,0.00
"CA001098954","1989-05-27",60.80,34.70,0.00,0.00,0.00
"CA001098954","1989-05-28",72.50,25.70,0.00,0.00,0.00
"CA001098954","1989-05-29",77.00,35.60,0.00,0.00,0.00
"CA001098954","1989-05-30",80.60,39.20,0.00,0.00,0.00
"CA001098954","1989-05-31",73.40,48.20,0.00,0.00,0.00
"CA001098954","1989-06-01",75.20,44.60,0.00,0.00,0.00
"CA001098954","1989-06-02",78.80,33.80,0.00,0.00,0.00
"CA001098954","1989-06-03",80.60,35.60,0.00,0.00,0.00
"CA001098954","1989-06-04",87.80,39.20,0.00,0.00,0.00
"CA001098954","1989-06-05",77.90,44.60,0.00,0.00,0.00
"CA001098954","1989-06-06",73.40,40.10,0.00,0.00,0.00
"CA001098954","1989-06-07",75.20,39.20,2.00,0.00,0.00
"CA001098954","1989-06-08",62.60,41.90,38.00,0.00,0.00
"CA001098954","1989-06-09",65.30,49.10,16.00,0.00,0.00
"CA001098954","1989-06-10",79.70,46.40,0.00,0.00,0.00
"CA001098954","1989-06-11",86.00,41.90,0.00,0.00,0.00
"CA001098954","1989-06-12",85.10,48.20,0.00,0.00,0.00
"CA001098954","1989-06-13",66.20,50.00,16.00,0.00,0.00
"CA001098954","1989-06-14",69.80,53.60,78.00,0.00,0.00
"CA001098954","1989-06-15",67.10,39.20,0.00,0.00,0.00
"CA001098954","1989-06-16",68.00,32.90,0.00,0.00,0.00
"CA001098954","1989-06-17",63.50,34.70,56.00,0.00,0.00
"CA001098954","1989-06-18",59.90,40.10,8.00,0.00,0.00
"CA001098954","1989-06-19",66.20,32.90,26.00,0.00,0.00
"CA001098954","1989-06-20",66.20,45.50,30.00,0.00,0.00
"CA001098954","1989-06-21",62.60,38.30,2.00,0.00,0.00
"CA001098954","1989-06-22",75.20,45.50,0.00,0.00,0.00
"CA001098954","1989-06-23",80.60,45.50,0.00,0.00,0.00
"CA001098954","1989-06-24",77.90,48.20,0.00,0.00,0.00
"CA001098954","1989-06-25",82.40,42.80,8.00,0.00,0.00
"CA001098954","1989-06-26",64.40,50.00,10.00,0.00,0.00
"CA001098954","1989-06-27",55.40,41.90,52.00,0.00,0.00
"CA001098954","1989-06-28",66.20,39.20,26.00,0.00,0.00
"CA001098954","1989-06-29",68.00,48.20,32.00,0.00,0.00
"CA001098954","1989-06-30",,,,0.00,0.00
"CA001098954","1989-07-01",66.20,41.00,6.00,0.00,0.00
"CA001098954","1989-07-02",69.80,50.00,68.00,0.00,0.00
"CA001098954","1989-07-03",69.80,44.60,8.00,0.00,0.00
"CA001098954","1989-07-04",69.80,41.00,2.00,0.00,0.00
"CA001098954","1989-07-05",68.00,47.30,2.00,0.00,0.00
"CA001098954","1989-07-06",72.50,39.20,2.00,0.00,0.00
"CA001098954","1989-07-07",67.10,43.70,20.00,0.00,0.00
"CA001098954","1989-07-08",66.20,42.80,32.00,0.00,0.00
"CA001098954","1989-07-09",74.30,46.40,2.00,0.00,0.00
"CA001098954","1989-07-10",77.90,41.00,0.00,0.00,0.00
"CA001098954","1989-07-11",77.90,41.90,0.00,0.00,0.00
"CA001098954","1989-07-12",84.20,44.60,0.00,0.00,0.00
"CA001098954","1989-07-13",80.60,48.20,6.00,0.00,0.00
"CA001098954","1989-07-14",80.60,46.40,34.00,0.00,0.00
"CA001098954","1989-07-15",69.80,53.60,6.00,0.00,0.00
"CA001098954","1989-07-16",68.00,44.60,10.00,0.00,0.00
"CA001098954","1989-07-17",78.80,48.20,14.00,0.00,0.00
"CA001098954","1989-07-18",80.60,44.60,0.00,0.00,0.00
"CA001098954","1989-07-19",80.60,44.60,2.00,0.00,0.00
"CA001098954","1989-07-20",78.80,42.80,28.00,0.00,0.00
"CA001098954","1989-07-21",66.20,44.60,6.00,0.00,0.00
"CA001098954","1989-07-22",70.70,41.90,0.00,0.00,0.00
"CA001098954","1989-07-23",69.80,36.50,10.00,0.00,0.00
"CA001098954","1989-07-24",76.10,46.40,0.00,0.00,0.00
"CA001098954","1989-07-25",80.60,41.00,2.00,0.00,0.00
"CA001098954","1989-07-26",86.90,42.80,4.00,0.00,0.00
"CA001098954","1989-07-27",78.80,55.40,0.00,0.00,0.00
"CA001098954","1989-07-28",77.90,41.00,0.00,0.00,0.00
"CA001098954","1989-07-29",87.80,46.40,0.00,0.00,0.00
"CA001098954","1989-07-30",83.30,52.70,0.00,0.00,0.00
"CA001098954","1989-07-31",86.00,46.40,0.00,0.00,0.00
"CA001098954","1989-08-01",80.60,50.00,56.00,0.00,0.00
"CA001098954","1989-08-02",68.90,57.20,203.00,0.00,0.00
"CA001098954","1989-08-03",77.00,52.70,4.00,0.00,0.00
"CA001098954","1989-08-04",78.80,44.60,0.00,0.00,0.00
"CA001098954","1989-08-05",80.60,50.00,112.00,0.00,0.00
"CA001098954","1989-08-06",84.20,50.00,0.00,0.00,0.00
"CA001098954","1989-08-07",86.00,50.00,0.00,0.00,0.00
"CA001098954","1989-08-08",82.40,46.40,8.00,0.00,0.00
"CA001098954","1989-08-09",73.40,47.30,8.00,0.00,0.00
"CA001098954","1989-08-10",73.40,43.70,5.00,0.00,0.00
"CA001098954","1989-08-11",77.00,41.00,31.00,0.00,0.00
"CA001098954","1989-08-12",87.80,48.20,21.00,0.00,0.00
"CA001098954","1989-08-13",80.60,54.50,,0.00,0.00
"CA001098954","1989-08-14",62.60,51.80,,0.00,0.00
"CA001098954","1989-08-15",69.80,42.80,0.00,0.00,0.00
"CA001098954","1989-08-16",75.20,42.80,0.00,0.00,0.00
"CA001098954","1989-08-17",84.20,48.20,0.00,0.00,0.00
"CA001098954","1989-08-18",78.80,48.20,,0.00,0.00
"CA001098954","1989-08-19",73.40,44.60,0.00,0.00,0.00
"CA001098954","1989-08-20",64.40,49.10,49.00,0.00,0.00
"CA001098954","1989-08-21",62.60,48.20,104.00,0.00,0.00
"CA001098954","1989-08-22",57.20,51.80,92.00,0.00,0.00
"CA001098954","1989-08-23",66.20,49.10,24.00,0.00,0.00
"CA001098954","1989-08-24",68.00,44.60,2.00,0.00,0.00
"CA001098954","1989-08-25",69.80,41.90,33.00,0.00,0.00
"CA001098954","1989-08-26",71.60,37.40,0.00,0.00,0.00
"CA001098954","1989-08-27",69.80,37.40,6.00,0.00,0.00
"CA001098954","1989-08-28",65.30,32.00,0.00,0.00,0.00
"CA001098954","1989-08-29",71.60,40.10,0.00,0.00,0.00
"CA001098954","1989-08-30",75.20,37.40,4.00,0.00,0.00
"CA001098954","1989-08-31",71.60,35.60,0.00,0.00,0.00
"CA001098954","1989-09-01",69.80,41.00,0.00,0.00,0.00
"CA001098954","1989-09-02",63.50,37.40,0.00,0.00,0.00
"CA001098954","1989-09-03",,,,0.00,0.00
"CA001098954","1989-09-04",,,,0.00,0.00
"CA001098954","1989-09-05",,,0.00,0.00,0.00
"CA001098954","1989-09-06",,,0.00,0.00,0.00
"CA001098954","1989-09-07",69.80,,0.00,0.00,0.00
"CA001098954","1989-09-08",,,0.00,0.00,0.00
"CA001098954","1989-09-09",,29.30,0.00,0.00,0.00
"CA001098954","1989-09-10",71.60,,0.00,0.00,0.00
"CA001098954","1989-09-11",75.20,32.90,0.00,0.00,0.00
"CA001098954","1989-09-12",78.80,33.80,0.00,0.00,0.00
"CA001098954","1989-09-13",77.00,33.80,0.00,0.00,0.00
"CA001098954","1989-09-14",69.80,32.00,0.00,0.00,0.00
"CA001098954","1989-09-15",60.80,28.40,4.00,0.00,0.00
"CA001098954","1989-09-16",57.20,30.20,0.00,0.00,0.00
"CA001098954","1989-09-17",59.00,23.90,0.00,0.00,0.00
"CA001098954","1989-09-18",50.00,26.60,87.00,0.00,0.00
"CA001098954","1989-09-19",60.80,46.40,22.00,0.00,0.00
"CA001098954","1989-09-20",64.40,41.90,4.00,0.00,0.00
"CA001098954","1989-09-21",70.70,41.00,0.00,0.00,0.00
"CA001098954","1989-09-22",77.00,38.30,0.00,0.00,0.00
"CA001098954","1989-09-23",71.60,36.50,0.00,0.00,0.00
"CA001098954","1989-09-24",74.30,32.00,0.00,0.00,0.00
"CA001098954","1989-09-25",76.10,35.60,0.00,0.00,0.00
"CA001098954","1989-09-26",60.80,38.30,0.00,0.00,0.00
"CA001098954","1989-09-27",68.90,37.40,0.00,0.00,0.00
"CA001098954","1989-09-28",73.40,33.80,0.00,0.00,0.00
"CA001098954","1989-09-29",60.80,39.20,80.00,0.00,0.00
"CA001098954","1989-09-30",52.70,41.90,3.00,0.00,0.00
"CA001098954","1989-10-01",55.40,20.30,0.00,0.00,0.00
"CA001098954","1989-10-02",59.90,23.90,0.00,0.00,0.00
"CA001098954","1989-10-03",64.40,26.60,0.00,0.00,0.00
"CA001098954","1989-10-04",59.00,32.90,30.00,0.00,0.00
"CA001098954","1989-10-05",55.40,45.50,3.00,0.00,0.00
"CA001098954","1989-10-06",60.80,32.00,0.00,0.00,0.00
"CA001098954","1989-10-07",64.40,33.80,0.00,0.00,0.00
"CA001098954","1989-10-08",61.70,38.30,6.00,0.00,0.00
"CA001098954","1989-10-09",68.00,44.60,11.00,0.00,0.00
"CA001098954","1989-10-10",55.40,40.10,96.00,0.00,0.00
"CA001098954","1989-10-11",57.20,35.60,2.00,0.00,0.00
"CA001098954","1989-10-12",54.50,38.30,4.00,0.00,0.00
"CA001098954","1989-10-13",53.60,22.10,10.00,0.00,0.00
"CA001098954","1989-10-14",50.00,34.70,0.00,0.00,0.00
"CA001098954","1989-10-15",48.20,21.20,0.00,0.00,0.00
"CA001098954","1989-10-16",47.30,14.90,8.00,0.00,0.00
"CA001098954","1989-10-17",57.20,27.50,,0.00,0.00
"CA001098954","1989-10-18",60.80,41.00,,0.00,0.00
"CA001098954","1989-10-19",50.00,30.20,0.00,0.00,0.00
"CA001098954","1989-10-20",48.20,31.10,,0.00,0.00
"CA001098954","1989-10-21",50.00,32.00,,0.00,0.00
"CA001098954","1989-10-22",50.00,30.20,,0.00,0.00
"CA001098954","1989-10-23",47.30,42.80,32.00,0.00,0.00
"CA001098954","1989-10-24",44.60,34.70,48.00,0.00,0.00
"CA001098954","1989-10-25",50.00,33.80,18.00,0.00,0.00
"CA001098954","1989-10-26",48.20,39.20,14.00,0.00,0.00
"CA001098954","1989-10-27",42.80,23.00,0.00,0.00,0.00
"CA001098954","1989-10-28",39.20,17.60,0.00,0.00,0.00
"CA001098954","1989-10-29",39.20,29.30,,0.00,0.00
"CA001098954","1989-10-30",41.00,30.20,,0.00,0.00
"CA001098954","1989-10-31",39.20,15.80,2.00,0.00,0.00
"CA001098954","1989-11-01",37.40,30.20,,,0.00
"CA001098954","1989-11-02",45.50,32.00,110.00,0.00,0.00
"CA001098954","1989-11-03",46.40,34.70,30.00,0.00,0.00
"CA001098954","1989-11-04",47.30,33.80,0.00,0.00,0.00
"CA001098954","1989-11-05",49.10,38.30,34.00,14.00,0.00
"CA001098954","1989-11-06",40.10,24.80,6.00,0.00,10.00
"CA001098954","1989-11-07",45.50,26.60,22.00,0.00,
"CA001098954","1989-11-08",46.40,32.90,,,
"CA001098954","1989-11-09",56.30,32.90,6.00,0.00,0.00
"CA001098954","1989-11-10",42.80,27.50,2.00,0.00,
"CA001098954","1989-11-11",36.50,20.30,0.00,0.00,
"CA001098954","1989-11-12",32.00,21.20,14.00,14.00,
"CA001098954","1989-11-13",32.00,22.10,60.00,60.00,
"CA001098954","1989-11-14",32.00,8.60,12.00,12.00,70.00
"CA001098954","1989-11-15",33.80,8.60,58.00,58.00,80.00
"CA001098954","1989-11-16",41.00,25.70,4.00,0.00,120.00
"CA001098954","1989-11-17",33.80,23.90,,,110.00
"CA001098954","1989-11-18",46.40,32.00,32.00,0.00,110.00
"CA001098954","1989-11-19",40.10,26.60,0.00,0.00,50.00
"CA001098954","1989-11-20",31.10,18.50,0.00,0.00,50.00
"CA001098954","1989-11-21",33.80,14.00,0.00,0.00,50.00
"CA001098954","1989-11-22",32.00,11.30,48.00,48.00,50.00
"CA001098954","1989-11-23",35.60,17.60,122.00,116.00,90.00
"CA001098954","1989-11-24",35.60,16.70,0.00,0.00,180.00
"CA001098954","1989-11-25",27.50,16.70,0.00,0.00,160.00
"CA001098954","1989-11-26",24.80,23.00,4.00,4.00,150.00
"CA001098954","1989-11-27",32.00,10.40,6.00,6.00,150.00
"CA001098954","1989-11-28",42.80,21.20,0.00,0.00,150.00
"CA001098954","1989-11-29",39.20,23.00,2.00,2.00,130.00
"CA001098954","1989-11-30",39.20,20.30,2.00,0.00,130.00
"CA001098954","1989-12-01",33.80,20.30,,,120.00
"CA001098954","1989-12-02",39.20,26.60,,,130.00
"CA001098954","1989-12-03",48.20,25.70,74.00,0.00,150.00
"CA001098954","1989-12-04",35.60,28.40,0.00,0.00,150.00
"CA001098954","1989-12-05",33.80,25.70,4.00,4.00,140.00
"CA001098954","1989-12-06",35.60,26.60,0.00,0.00,140.00
"CA001098954","1989-12-07",32.00,24.80,94.00,94.00,
"CA001098954","1989-12-08",33.80,13.10,26.00,26.00,
"CA001098954","1989-12-09",30.20,11.30,0.00,0.00,
"CA001098954","1989-12-10",17.60,-4.00,6.00,6.00,
"CA001098954","1989-12-11",26.60,2.30,2.00,2.00,260.00
"CA001098954","1989-12-12",30.20,21.20,4.00,4.00,260.00
"CA001098954","1989-12-13",32.00,28.40,0.00,0.00,250.00
"CA001098954","1989-12-14",33.80,23.90,0.00,0.00,240.00
"CA001098954","1989-12-15",32.00,23.90,0.00,0.00,240.00
"CA001098954","1989-12-16",30.20,28.40,10.00,10.00,240.00
"CA001098954","1989-12-17",23.00,17.60,0.00,0.00,250.00
"CA001098954","1989-12-18",19.40,3.20,76.00,76.00,240.00
"CA001098954","1989-12-19",14.90,5.90,74.00,74.00,320.00
"CA001098954","1989-12-20",1.40,-4.90,0.00,0.00,380.00
"CA001098954","1989-12-21",26.60,-8.50,82.00,82.00,370.00
"CA001098954","1989-12-22",33.80,5.90,,,420.00
"CA001098954","1989-12-23",33.80,28.40,10.00,0.00,400.00
"CA001098954","1989-12-24",33.80,26.60,,,390.00
"CA001098954","1989-12-25",37.40,31.10,4.00,0.00,370.00
"CA001098954","1989-12-26",35.60,25.70,,,360.00
"CA001098954","1989-12-27",41.00,32.00,0.00,0.00,360.00
"CA001098954","1989-12-28",35.60,22.10,26.00,20.00,
"CA001098954","1989-12-29",36.50,28.40,26.00,20.00,350.00
"CA001098954","1989-12-30",35.60,29.30,0.00,0.00,370.00
"CA001098954","1989-12-31",37.40,26.60,36.00,36.00,370.00
"CA001098954","1990-01-01",35.60,22.10,0.00,0.00,410.00
"CA001098954","1990-01-02",31.10,14.00,130.00,130.00,400.00
"CA001098954","1990-01-03",33.80,24.80,114.00,114.00,520.00
"CA001098954","1990-01-04",36.50,23.00,50.00,50.00,590.00
"CA001098954","1990-01-05",39.20,27.50,18.00,0.00,610.00
"CA001098954","1990-01-06",39.20,28.40,56.00,52.00,570.00
"CA001098954","1990-01-07",37.40,30.20,2.00,2.00,590.00
"CA001098954","1990-01-08",39.20,18.50,0.00,0.00,580.00
"CA001098954","1990-01-09",41.00,22.10,0.00,0.00,570.00
"CA001098954","1990-01-10",32.00,25.70,0.00,0.00,560.00
"CA001098954","1990-01-11",22.10,-0.40,6.00,6.00,560.00
"CA001098954","1990-01-12",27.50,11.30,12.00,12.00,560.00
"CA001098954","1990-01-13",31.10,23.90,26.00,26.00,560.00
"CA001098954","1990-01-14",30.20,19.40,44.00,44.00,590.00
"CA001098954","1990-01-15",32.90,23.00,44.00,44.00,610.00
"CA001098954","1990-01-16",21.20,2.30,0.00,0.00,640.00
"CA001098954","1990-01-17",19.40,-4.00,0.00,0.00,620.00
"CA001098954","1990-01-18",23.00,-1.30,0.00,0.00,610.00
"CA001098954","1990-01-19",23.00,-3.10,0.00,0.00,610.00
"CA001098954","1990-01-20",33.80,14.00,60.00,60.00,600.00
"CA001098954","1990-01-21",34.70,26.60,67.00,32.00,660.00
"CA001098954","1990-01-22",41.00,24.80,0.00,0.00,670.00
"CA001098954","1990-01-23",32.90,6.80,32.00,20.00,650.00
"CA001098954","1990-01-24",41.00,14.00,40.00,40.00,670.00
"CA001098954","1990-01-25",40.10,25.70,0.00,0.00,710.00
"CA001098954","1990-01-26",30.20,5.00,52.00,52.00,700.00
"CA001098954","1990-01-27",30.20,21.20,78.00,78.00,740.00
"CA001098954","1990-01-28",28.40,13.10,20.00,20.00,800.00
"CA001098954","1990-01-29",6.80,-11.20,9.00,9.00,790.00
"CA001098954","1990-01-30",-5.80,-10.30,0.00,0.00,780.00
"CA001098954","1990-01-31",-8.50,-43.60,0.00,0.00,770.00
"CA001098954","1990-02-01",6.80,-20.20,,,810.00
"CA001098954","1990-02-02",39.20,-8.50,48.00,48.00,850.00
"CA001098954","1990-02-03",33.80,13.10,4.00,4.00,850.00
"CA001098954","1990-02-04",32.00,8.60,0.00,0.00,850.00
"CA001098954","1990-02-05",41.00,17.60,0.00,0.00,830.00